Time+07,TemperatureF,Dew PointF,Humidity,Sea Level PressureIn,VisibilityMPH,Wind Direction,Wind SpeedMPH,Gust SpeedMPH,PrecipitationIn,Events,Conditions,WindDirDegrees,DateUTC
12:00 AM,78.8,71.6,78,29.92,5.6,NW,3.5,-,N/A,,Mostly Cloudy,320,2013-09-08 17:00:00
12:30 AM,78.8,73.4,83,29.92,5.6,NNW,3.5,-,N/A,,Mostly Cloudy,330,2013-09-08 17:30:00
1:00 AM,80,75,81,29.86,6,Calm,Calm,,,,Scattered Clouds,,2013-09-08 18:00:00
1:00 AM,78.8,73.4,83,29.89,5.6,Variable,2.3,-,N/A,,Mostly Cloudy,0,2013-09-08 18:00:00
1:30 AM,78.8,73.4,83,29.89,5.6,NW,3.5,-,N/A,,Mostly Cloudy,310,2013-09-08 18:30:00
2:00 AM,78.8,73.4,83,29.89,5.6,NW,3.5,-,N/A,,Mostly Cloudy,310,2013-09-08 19:00:00
2:30 AM,78.8,73.4,83,29.86,5.6,Calm,Calm,-,N/A,,Mostly Cloudy,0,2013-09-08 19:30:00
3:00 AM,77.0,73.4,89,29.86,4.3,Variable,2.3,-,N/A,Rain,Light Rain,0,2013-09-08 20:00:00
3:30 AM,77.0,73.4,89,29.86,5.0,NNW,8.1,-,N/A,,Mostly Cloudy,340,2013-09-08 20:30:00
4:00 AM,75.2,71.6,89,29.86,4.3,NNW,4.6,-,N/A,Rain,Light Rain,340,2013-09-08 21:00:00
4:30 AM,75.2,71.6,89,29.86,5.0,NW,5.8,-,N/A,,Mostly Cloudy,320,2013-09-08 21:30:00
5:00 AM,75.2,71.6,89,29.86,5.0,WNW,5.8,-,N/A,,Mostly Cloudy,290,2013-09-08 22:00:00
5:30 AM,75.2,71.6,89,29.86,5.0,WNW,5.8,-,N/A,,Mostly Cloudy,300,2013-09-08 22:30:00
6:00 AM,75.2,71.6,89,29.86,5.0,NNW,4.6,-,N/A,,Mostly Cloudy,340,2013-09-08 23:00:00
6:30 AM,77.0,71.6,83,29.86,5.0,NNW,6.9,-,N/A,,Mostly Cloudy,330,2013-09-08 23:30:00
7:00 AM,77.0,71.6,83,29.86,5.6,NNW,5.8,-,N/A,,Mostly Cloudy,330,2013-09-09 00:00:00
7:30 AM,77.0,71.6,83,29.89,5.6,NNW,4.6,-,N/A,,Mostly Cloudy,330,2013-09-09 00:30:00
8:00 AM,77.0,71.6,83,29.89,6.2,NNW,5.8,-,N/A,,Mostly Cloudy,330,2013-09-09 01:00:00
8:30 AM,80.6,71.6,74,29.92,6.2,Variable,3.5,-,N/A,,Mostly Cloudy,0,2013-09-09 01:30:00
9:00 AM,80.6,73.4,79,29.92,6.2,NW,5.8,-,N/A,,Mostly Cloudy,310,2013-09-09 02:00:00
9:30 AM,82.4,73.4,74,29.92,6.2,NW,5.8,-,N/A,,Mostly Cloudy,310,2013-09-09 02:30:00
10:00 AM,82.4,73.4,74,29.92,6.2,WNW,8.1,-,N/A,,Mostly Cloudy,290,2013-09-09 03:00:00
10:30 AM,82.4,73.4,74,29.92,6.2,West,10.4,-,N/A,,Mostly Cloudy,280,2013-09-09 03:30:00
11:00 AM,82.4,73.4,74,29.92,6.2,West,10.4,-,N/A,,Mostly Cloudy,280,2013-09-09 04:00:00
11:30 AM,82.4,73.4,74,29.89,6.2,West,10.4,-,N/A,,Mostly Cloudy,270,2013-09-09 04:30:00
12:00 PM,82.4,73.4,74,29.89,6.2,WNW,9.2,-,N/A,,Mostly Cloudy,290,2013-09-09 05:00:00
12:30 PM,82.4,73.4,74,29.89,6.2,WNW,9.2,-,N/A,,Mostly Cloudy,290,2013-09-09 05:30:00
1:00 PM,84,76,72,29.85,6,NNW,13.8,,,,Scattered Clouds,330,2013-09-09 06:00:00
1:00 PM,84.2,73.4,70,29.86,6.2,WNW,8.1,-,N/A,,Mostly Cloudy,300,2013-09-09 06:00:00
1:30 PM,84.2,75.2,74,29.86,6.2,WNW,10.4,-,N/A,,Mostly Cloudy,290,2013-09-09 06:30:00
2:00 PM,84.2,75.2,74,29.83,6.2,WNW,10.4,-,N/A,,Mostly Cloudy,290,2013-09-09 07:00:00
2:30 PM,82.4,73.4,74,29.83,5.6,West,11.5,-,N/A,Rain,Light Rain,280,2013-09-09 07:30:00
3:00 PM,80.6,73.4,79,29.83,3.1,WNW,11.5,-,N/A,,Mostly Cloudy,290,2013-09-09 08:00:00
3:30 PM,78.8,71.6,78,29.83,5.6,NW,6.9,-,N/A,,Mostly Cloudy,320,2013-09-09 08:30:00
4:00 PM,80.6,73.4,79,29.80,5.6,NW,5.8,-,N/A,,Mostly Cloudy,310,2013-09-09 09:00:00
4:30 PM,82.4,73.4,74,29.80,5.6,NW,6.9,-,N/A,,Mostly Cloudy,310,2013-09-09 09:30:00
5:00 PM,82.4,75.2,79,29.80,5.6,WNW,6.9,-,N/A,,Mostly Cloudy,300,2013-09-09 10:00:00
5:30 PM,82.4,75.2,79,29.80,5.6,WNW,8.1,-,N/A,,Mostly Cloudy,300,2013-09-09 10:30:00
6:00 PM,82.4,73.4,74,29.80,5.6,West,10.4,-,N/A,,Mostly Cloudy,280,2013-09-09 11:00:00
6:30 PM,82.4,73.4,74,29.80,5.0,WNW,10.4,-,N/A,,Mostly Cloudy,290,2013-09-09 11:30:00
7:00 PM,82,75,74,29.78,6,NW,8.1,,,,Mist,320,2013-09-09 12:00:00
7:00 PM,82.4,73.4,74,29.83,5.0,WNW,11.5,-,N/A,,Mostly Cloudy,290,2013-09-09 12:00:00
7:30 PM,80.6,73.4,79,29.83,5.0,WNW,9.2,-,N/A,,Mostly Cloudy,290,2013-09-09 12:30:00
8:00 PM,82.4,73.4,74,29.83,5.0,West,10.4,-,N/A,,Mostly Cloudy,280,2013-09-09 13:00:00
8:30 PM,80.6,73.4,79,29.86,5.0,West,9.2,-,N/A,,Mostly Cloudy,280,2013-09-09 13:30:00
9:00 PM,80.6,69.8,70,29.86,1.2,West,19.6,-,N/A,Rain,Heavy Rain,270,2013-09-09 14:00:00
9:30 PM,77.0,71.6,83,29.86,5.0,Variable,1.2,-,N/A,,Mostly Cloudy,0,2013-09-09 14:30:00
10:00 PM,77.0,71.6,83,29.86,5.0,Calm,Calm,-,N/A,,Mostly Cloudy,0,2013-09-09 15:00:00
10:30 PM,77.0,71.6,83,29.89,5.0,Calm,Calm,-,N/A,,Mostly Cloudy,0,2013-09-09 15:30:00
11:00 PM,77.0,71.6,83,29.89,3.1,SW,5.8,-,N/A,Rain,Rain,220,2013-09-09 16:00:00
11:30 PM,75.2,73.4,94,29.89,4.3,Calm,Calm,-,N/A,,Mostly Cloudy,0,2013-09-09 16:30:00